Location: Unspecified
(0.0000°N, 0.0000°E)
Time: 07:57:11
(UTC+00:00)

Courier 1B - Visible Passes

Search period start: 03 April 2020 00:00
Search period end: 13 April 2020 00:00
Orbit: 962 x 1209 km, 28.3° (Epoch: 02 April)

Date Brightness Start Highest point End Pass type
(mag) Time Alt. Az. Time Alt. Az. Time Alt. Az.
03 Apr 9.6 04:35:03 10° NNW 04:39:35 19° NNE 04:44:04 10° ENE visible
03 Apr 8.8 19:54:12 10° W 20:01:32 42° NNW 20:04:56 28° NNE visible
04 Apr 9.8 03:43:13 12° N 03:45:35 14° NNE 03:48:54 10° NE visible
04 Apr 8.4 05:33:50 10° NW 05:40:07 49° NNE 05:46:21 10° ESE visible
04 Apr 8.5 18:59:48 10° WSW 19:07:29 57° NNW 19:15:06 10° NE visible
04 Apr 9.8 20:57:12 10° WNW 21:02:08 19° NNW 21:02:08 19° NNW visible
05 Apr 8.8 04:40:23 10° NW 04:46:20 35° NNE 04:52:09 10° E visible
05 Apr 9.6 20:01:57 10° W 20:08:08 25° NNW 20:12:21 16° NNE visible
06 Apr 9.2 03:50:17 22° N 03:52:28 26° NNE 03:57:44 10° E visible
06 Apr 9.3 19:07:06 10° W 19:14:00 33° NNW 19:20:53 10° NE visible
06 Apr 10.2 21:07:11 10° NW 21:09:22 11° NNW 21:09:27 11° NNW visible
07 Apr 9.8 03:00:27 17° NE 03:00:27 17° NE 03:03:01 10° ENE visible
07 Apr 7.8 04:47:24 15° NW 04:52:55 66° NNE 04:59:20 10° ESE visible
07 Apr 9.0 18:12:34 10° W 18:19:55 45° NNW 18:27:20 10° NE visible
07 Apr 10.1 20:10:47 10° NW 20:15:01 15° NNW 20:19:13 10° N visible
08 Apr 8.2 03:57:36 40° N 03:59:08 47° NNE 04:05:22 10° ESE visible
08 Apr 9.9 19:15:16 10° WNW 19:20:44 20° NNW 19:26:13 10° NNE visible
09 Apr 9.3 03:07:50 26° ENE 03:07:50 26° ENE 03:11:11 10° E visible
09 Apr 7.5 04:54:46 20° WNW 04:59:25 67° SSW 05:05:52 10° SE visible
09 Apr 9.7 18:20:14 10° W 18:26:32 27° NNW 18:32:55 10° NNE visible
10 Apr 7.4 04:05:00 74° NW 04:05:41 87° NNE 04:12:14 10° ESE visible
10 Apr 10.2 19:24:50 10° NW 19:27:46 12° NNW 19:30:43 10° N visible
11 Apr 9.1 03:15:13 30° E 03:15:13 30° E 03:18:26 10° ESE visible
11 Apr 8.2 05:02:09 20° W 05:05:58 36° SSW 05:11:51 10° SE visible
11 Apr 10.1 18:28:55 10° WNW 18:33:25 16° NNW 18:37:58 10° NNE visible
12 Apr 7.8 04:12:20 51° SSW 04:12:20 51° SSW 04:18:32 10° SE visible
